Cut Bank, MT

5:51 PM MDT on May 27, 2017 (GMT -0600)
Cut Bank Municipal

Weather History for KCTB - April, 2013

Change the Weather History Date:

Monday, April 8, 2013

  Actual Average Record
Temperature  
Mean Temperature 19 °F 39 °F  
Max Temperature 25 °F 51 °F 79 °F (1977)
Min Temperature 13 °F 27 °F 5 °F (1982)
Degree Days  
Heating Degree Days 46 26  
Month to date heating degree days 214 217  
Since 1 July heating degree days 7008 7315  
Cooling Degree Days 0 0  
Month to date cooling degree days 0 0  
Year to date cooling degree days 0 0  
Moisture  
Dew Point 14 °F    
Average Humidity 75    
Maximum Humidity 92    
Minimum Humidity 57    
Precipitation  
Precipitation T in 0.02 in 0.27 in (1922)
Month to date precipitation T 0.15  
Year to date precipitation 1.30 1.06  
Snow  
Snow 0.00 in - - ()
Snow Depth 3.00 in    
Sea Level Pressure  
Sea Level Pressure 30.18 in    
Wind  
Wind Speed 8 mph (NNE)    
Max Wind Speed 18 mph    
Max Gust Speed 21 mph    
Visibility 5 miles    
Events Snow    
T = Trace of Precipitation, MM = Missing Value Source: NWS Daily Summary

Daily Weather History Graph

Daily Weather History Graph

Search for Another Location

Airport or City:

Trip Planner

Search our weather history database for the weather conditions in past years. The results will help you decide how hot, cold, wet, or windy it might be!

Date:

Astronomy

Apr. 08, 2013 Rise Set
Actual Time 6:52 AM MDT 8:11 PM MDT
Civil Twilight 6:19 AM MDT 8:43 PM MDT
Nautical Twilight 5:40 AM MDT 9:22 PM MDT
Astronomical Twilight 4:58 AM MDT 10:05 PM MDT
Moon 5:51 AM MDT (4/8) 6:45 PM MDT (4/8)
Length of Visible Light 14h 23m
Length of Day
13h 18m
Waning Crescent, 3% of the Moon is Illuminated
Apr 8
Waning Crescent
Apr 10
New
Apr 18
First Quarter
Apr 25
Full
May 2
Last Quarter

Hourly Weather History & Observations

Time (MDT) Temp. Windchill Dew Point Humidity Pressure Visibility Wind Dir Wind Speed Gust Speed Precip Events Conditions
12:08 AM 21.2 °F 7.8 °F 19.4 °F 93% 29.93 in 2.0 mi North 15.0 mph - N/A   Overcast
12:21 AM 21.2 °F 8.3 °F 19.4 °F 93% 29.93 in 1.8 mi North 13.8 mph - N/A   Overcast
12:31 AM 21.2 °F 8.3 °F 19.4 °F 93% 29.94 in 2.0 mi NNE 13.8 mph - N/A   Overcast
12:56 AM 21.9 °F 10.4 °F 19.0 °F 89% 30.04 in 2.5 mi NNE 11.5 mph - N/A   Overcast
1:10 AM 21.2 °F 8.3 °F 17.6 °F 86% 29.95 in 3.0 mi NNE 13.8 mph - N/A   Overcast
1:20 AM 21.2 °F 9.5 °F 17.6 °F 86% 29.95 in 2.5 mi NNE 11.5 mph - N/A   Overcast
1:36 AM 19.4 °F 6.6 °F 17.6 °F 93% 29.96 in 2.5 mi NNE 12.7 mph - N/A   Overcast
1:56 AM 19.9 °F 5.2 °F 16.0 °F 85% 30.08 in 2.5 mi NNE 17.3 mph - N/A   Overcast
2:14 AM 19.4 °F 5.5 °F 15.8 °F 86% 29.97 in 3.0 mi NNE 15.0 mph - N/A   Overcast
2:56 AM 19.0 °F 6.8 °F 16.0 °F 88% 30.10 in 2.5 mi North 11.5 mph - N/A   Overcast
3:27 AM 19.4 °F 6.6 °F 15.8 °F 86% 29.99 in 2.0 mi NNE 12.7 mph - N/A   Overcast
3:38 AM 17.6 °F 3.7 °F 15.8 °F 93% 29.99 in 1.8 mi NNE 13.8 mph - N/A   Overcast
3:56 AM 18.0 °F 3.6 °F 15.1 °F 88% 30.13 in 3.0 mi NNE 15.0 mph - N/A   Overcast
3:59 AM 17.6 °F 3.7 °F 14.0 °F 86% 30.00 in 2.5 mi NNE 13.8 mph - N/A   Overcast
4:21 AM 17.6 °F 3.2 °F 14.0 °F 86% 30.01 in 3.0 mi North 15.0 mph - N/A   Overcast
4:29 AM 17.6 °F 4.3 °F 14.0 °F 86% 30.01 in 2.5 mi NNE 12.7 mph - N/A   Overcast
4:44 AM 17.6 °F 4.3 °F 14.0 °F 86% 30.02 in 4.0 mi NNE 12.7 mph - N/A   Overcast
4:56 AM 17.1 °F 2.5 °F 12.9 °F 84% 30.16 in 4.0 mi North 15.0 mph - N/A   Overcast
5:05 AM 15.8 °F 2.1 °F 12.2 °F 86% 30.02 in 2.5 mi NNE 12.7 mph - N/A   Overcast
5:35 AM 15.8 °F 2.1 °F 12.2 °F 86% 30.03 in 1.8 mi North 12.7 mph - N/A   Overcast
5:56 AM 16.0 °F 1.7 °F 14.0 °F 92% 30.18 in 1.2 mi North 13.8 mph - N/A   Overcast
6:07 AM 15.8 °F 0.9 °F 12.2 °F 86% 30.04 in 1.8 mi NNE 15.0 mph - N/A   Overcast
6:17 AM 15.8 °F 2.1 °F 12.2 °F 86% 30.05 in 2.0 mi North 12.7 mph - N/A   Overcast
6:56 AM 12.9 °F -1.6 °F 10.0 °F 88% 30.22 in 2.0 mi North 12.7 mph - N/A   Overcast
7:32 AM 12.2 °F -2.5 °F 10.4 °F 92% 30.09 in 1.5 mi North 12.7 mph - N/A   Overcast
7:56 AM 12.9 °F -0.9 °F 10.0 °F 88% 30.26 in 1.2 mi North 11.5 mph - N/A   Overcast
8:10 AM 12.2 °F -1.0 °F 10.4 °F 92% 30.11 in 1.2 mi NNE 10.4 mph - N/A   Overcast
8:32 AM 12.2 °F -1.0 °F 10.4 °F 92% 30.12 in 1.5 mi North 10.4 mph - N/A   Overcast
8:46 AM 14.0 °F 1.2 °F 10.4 °F 86% 30.13 in 2.0 mi North 10.4 mph - N/A   Overcast
8:56 AM 14.0 °F 1.2 °F 10.0 °F 84% 30.29 in 2.5 mi North 10.4 mph - N/A   Overcast
9:17 AM 15.8 °F 3.4 °F 10.4 °F 79% 30.14 in 1.5 mi NNE 10.4 mph - N/A   Haze
9:52 AM 15.8 °F 2.7 °F 10.4 °F 79% 30.15 in 2.5 mi NNE 11.5 mph - 0.00 in   Haze
9:56 AM 16.0 °F 3.6 °F 10.0 °F 77% 30.30 in 2.5 mi North 10.4 mph - 0.00 in   Haze
10:15 AM 15.8 °F 3.4 °F 10.4 °F 79% 30.16 in 3.0 mi NNE 10.4 mph - N/A   Haze
10:37 AM 15.8 °F 3.4 °F 10.4 °F 79% 30.17 in 2.5 mi North 10.4 mph - 0.00 in Snow Light Snow
10:46 AM 15.8 °F 2.7 °F 10.4 °F 79% 30.17 in 4.0 mi North 11.5 mph - 0.00 in   Haze
10:56 AM 16.0 °F 3.6 °F 10.0 °F 77% 30.32 in 4.0 mi North 10.4 mph - 0.00 in   Haze
11:26 AM 17.6 °F 5.7 °F 8.6 °F 68% 30.18 in 10.0 mi NNE 10.4 mph - N/A   Overcast
11:49 AM 17.6 °F 5.7 °F 10.4 °F 73% 30.19 in 9.0 mi NNE 10.4 mph - N/A   Overcast
11:56 AM 19.0 °F 7.5 °F 10.9 °F 71% 30.34 in 9.0 mi NNE 10.4 mph - N/A   Overcast
12:42 PM 21.2 °F 11.7 °F 10.4 °F 63% 30.20 in 10.0 mi NNE 8.1 mph - N/A   Overcast
12:56 PM 21.0 °F 10.6 °F 9.0 °F 60% 30.34 in 10.0 mi NNE 9.2 mph - N/A   Overcast
1:26 PM 21.2 °F 13.6 °F 12.2 °F 68% 30.20 in 9.0 mi NE 5.8 mph - 0.00 in   Overcast
1:56 PM 21.9 °F 14.5 °F 12.0 °F 66% 30.35 in 9.0 mi North 5.8 mph - 0.00 in   Overcast
2:06 PM 24.8 °F 17.9 °F 12.2 °F 59% 30.20 in 10.0 mi NE 5.8 mph - N/A   Overcast
2:56 PM 24.1 °F 18.2 °F 12.9 °F 62% 30.36 in 10.0 mi Variable 4.6 mph - 0.00 in   Overcast
3:37 PM 24.8 °F - 12.2 °F 59% 30.21 in 10.0 mi Calm Calm - 0.00 in   Overcast
3:45 PM 24.8 °F - 14.0 °F 64% 30.21 in 10.0 mi Calm Calm - 0.00 in   Overcast
3:56 PM 25.0 °F 18.1 °F 14.0 °F 63% 30.35 in 10.0 mi North 5.8 mph - 0.00 in   Overcast
4:05 PM 23.0 °F - 12.2 °F 63% 30.20 in 4.0 mi Calm Calm - 0.00 in Snow Light Snow
4:15 PM 23.0 °F - 14.0 °F 68% 30.20 in 4.0 mi Calm Calm - 0.00 in Snow Light Snow
4:32 PM 24.8 °F 20.5 °F 14.0 °F 64% 30.21 in 9.0 mi WNW 3.5 mph - 0.00 in   Overcast
4:56 PM 23.0 °F - 14.0 °F 68% 30.37 in 9.0 mi Calm Calm - 0.00 in Snow Light Snow
5:26 PM 23.0 °F - 15.8 °F 74% 30.22 in 1.8 mi Calm Calm - 0.00 in Snow Light Snow
5:43 PM 24.8 °F - 17.6 °F 74% 30.22 in 3.0 mi Calm Calm - 0.00 in Snow Light Snow
5:56 PM 25.0 °F 20.7 °F 17.1 °F 72% 30.37 in 8.0 mi Variable 3.5 mph - 0.00 in   Overcast
6:03 PM 24.8 °F - 15.8 °F 69% 30.23 in 2.5 mi Calm Calm - 0.00 in Snow Light Snow
6:13 PM 24.8 °F 19.1 °F 17.6 °F 74% 30.23 in 2.0 mi NE 4.6 mph - 0.00 in Snow Light Snow
6:29 PM 24.8 °F - 17.6 °F 74% 30.23 in 4.0 mi Calm Calm - 0.00 in Snow Light Snow
6:56 PM 24.1 °F 18.2 °F 18.0 °F 77% 30.40 in 10.0 mi Variable 4.6 mph - 0.00 in   Overcast
7:04 PM 24.8 °F 16.1 °F 17.6 °F 74% 30.24 in 4.0 mi ENE 8.1 mph - 0.00 in Snow Light Snow
7:26 PM 24.8 °F - 17.6 °F 74% 30.25 in 7.0 mi Calm Calm - 0.00 in Snow Light Snow
7:56 PM 23.0 °F - 17.1 °F 78% 30.42 in 10.0 mi Calm Calm - 0.00 in   Overcast
8:53 PM 23.0 °F - 19.4 °F 86% 30.27 in 3.0 mi Calm Calm - 0.00 in Snow Light Snow
8:56 PM 23.0 °F - 19.0 °F 85% 30.43 in 3.0 mi Calm Calm - 0.00 in Snow Light Snow
9:12 PM 23.0 °F - 19.4 °F 86% 30.27 in 4.0 mi Calm Calm - 0.00 in Snow Light Snow
9:56 PM 19.9 °F 11.1 °F 17.1 °F 89% 30.46 in 9.0 mi West 6.9 mph - 0.00 in Snow Light Snow
10:56 PM 16.0 °F 6.3 °F 14.0 °F 92% 30.48 in 10.0 mi WNW 6.9 mph - 0.00 in   Clear
11:56 PM 15.1 °F 4.2 °F 12.0 °F 88% 30.47 in 10.0 mi WNW 8.1 mph - N/A   Clear